Saint Cloud, MN

12:45 AM CDT on September 25, 2016 (GMT -0500)
Saint Cloud Regional

Weather History for KSTC - March, 2013

Change the Weather History Date:

Wednesday, March 13, 2013

  Actual Average Record
Temperature  
Mean Temperature 19 °F 28 °F  
Max Temperature 31 °F 37 °F 64 °F (1911)
Min Temperature 6 °F 19 °F -15 °F (1975)
Degree Days  
Heating Degree Days 46 37  
Month to date heating degree days 565 517  
Since 1 July heating degree days 6835 6963  
Cooling Degree Days 0 0  
Month to date cooling degree days 0 0  
Year to date cooling degree days 0 0  
Moisture  
Dew Point 11 °F    
Average Humidity 71    
Maximum Humidity 91    
Minimum Humidity 50    
Precipitation  
Precipitation T in 0.05 in 0.65 in (1978)
Month to date precipitation 1.53 0.53  
Year to date precipitation 3.31 1.77  
Snow  
Snow T in 0.30 in 10.00 in (1917)
Month to date snowfall 9.4 4.3  
Since 1 July snowfall 46.9 38.5  
Snow Depth 13.00 in    
Sea Level Pressure  
Sea Level Pressure 30.37 in    
Wind  
Wind Speed 6 mph (West)    
Max Wind Speed 12 mph    
Max Gust Speed 14 mph    
Visibility 10 miles    
Events Snow    
T = Trace of Precipitation, MM = Missing Value Source: NWS Daily Summary

Daily Weather History Graph

Daily Weather History Graph

Search for Another Location

Airport or City:

Trip Planner

Search our weather history database for the weather conditions in past years. The results will help you decide how hot, cold, wet, or windy it might be!

Date:

Astronomy

Mar. 13, 2013 Rise Set
Actual Time 7:32 AM CDT 7:19 PM CDT
Civil Twilight 7:02 AM CDT 7:49 PM CDT
Nautical Twilight 6:28 AM CDT 8:23 PM CDT
Astronomical Twilight 5:53 AM CDT 8:59 PM CDT
Moon 8:04 AM CDT (3/13) 9:46 PM CDT (3/13)
Length of Visible Light 12h 46m
Length of Day
11h 47m
Waxing Crescent, 4% of the Moon is Illuminated
Mar 13
Waxing Crescent
Mar 19
First Quarter
Mar 27
Full
Apr 2
Last Quarter
Apr 10
New

Hourly Weather History & Observations

Time (CDT) Temp. Windchill Dew Point Humidity Pressure Visibility Wind Dir Wind Speed Gust Speed Precip Events Conditions
12:53 AM 15.1 °F 2.5 °F 9.0 °F 77% 30.29 in 10.0 mi NW 10.4 mph - N/A   Clear
1:53 AM 12.9 °F -0.2 °F 9.0 °F 84% 30.31 in 10.0 mi NW 10.4 mph - N/A   Clear
2:53 AM 12.9 °F 0.7 °F 8.1 °F 81% 30.33 in 10.0 mi NW 9.2 mph - N/A   Clear
3:53 AM 12.0 °F 1.5 °F 9.0 °F 88% 30.33 in 10.0 mi NW 6.9 mph - N/A   Clear
4:53 AM 9.0 °F -3.2 °F 6.1 °F 88% 30.35 in 10.0 mi NW 8.1 mph - N/A   Clear
5:53 AM 9.0 °F -3.2 °F 6.1 °F 88% 30.37 in 10.0 mi NW 8.1 mph - N/A   Clear
6:53 AM 9.0 °F 0.6 °F 5.0 °F 84% 30.38 in 10.0 mi NW 4.6 mph - N/A   Clear
7:53 AM 7.0 °F -1.7 °F 3.9 °F 87% 30.40 in 9.0 mi NW 4.6 mph - N/A   Clear
8:53 AM 9.0 °F -2.2 °F 5.0 °F 84% 30.42 in 10.0 mi NW 6.9 mph - N/A   Clear
9:53 AM 12.9 °F 1.6 °F 7.0 °F 77% 30.44 in 10.0 mi NW 8.1 mph - N/A   Clear
10:53 AM 17.1 °F 8.7 °F 9.0 °F 71% 30.44 in 10.0 mi WNW 5.8 mph - N/A   Clear
11:53 AM 21.0 °F 16.2 °F 10.9 °F 65% 30.44 in 10.0 mi NNW 3.5 mph - N/A   Clear
12:53 PM 24.1 °F - 12.9 °F 62% 30.43 in 10.0 mi Calm Calm - N/A   Clear
1:53 PM 28.9 °F - 14.0 °F 54% 30.42 in 10.0 mi Calm Calm - 0.00 in Snow Light Snow
2:53 PM 28.9 °F 22.8 °F 14.0 °F 54% 30.39 in 10.0 mi WSW 5.8 mph - 0.00 in   Clear
3:53 PM 28.9 °F 25.2 °F 12.9 °F 51% 30.38 in 10.0 mi WSW 3.5 mph - N/A   Clear
4:53 PM 28.0 °F 18.1 °F 15.1 °F 58% 30.37 in 10.0 mi SSW 11.5 mph - N/A   Clear
5:53 PM 27.0 °F 18.7 °F 15.1 °F 61% 30.36 in 10.0 mi South 8.1 mph - N/A   Clear
6:53 PM 26.1 °F 16.8 °F 14.0 °F 60% 30.37 in 10.0 mi SW 9.2 mph - N/A   Clear
7:53 PM 24.1 °F 16.0 °F 14.0 °F 65% 30.35 in 10.0 mi SSW 6.9 mph - N/A   Clear
8:53 PM 21.9 °F 15.7 °F 14.0 °F 72% 30.34 in 10.0 mi South 4.6 mph - N/A   Clear
9:53 PM 21.9 °F 14.5 °F 15.1 °F 75% 30.32 in 10.0 mi South 5.8 mph - N/A   Clear
10:53 PM 21.9 °F 12.5 °F 15.1 °F 75% 30.30 in 10.0 mi South 8.1 mph - N/A   Overcast
11:53 PM 21.9 °F 13.4 °F 16.0 °F 78% 30.28 in 10.0 mi SE 6.9 mph - N/A   Overcast